This is the latest recevied weather packets stored in our database for station/object WK7G. If no packets are shown the sender has not sent any weather packets the latest 10 day(s).
| Time | Temp. | Humidity | Pressure | Rain* | Wind** | Luminosity | Snow |
|---|---|---|---|---|---|---|---|
| 1777921647 | 17.22° C | 36% | 1002.8 hPa | 0 mm | - | 215 W/m² | - |
| 1777921344 | 17.78° C | 35% | 1003.1 hPa | 0 mm | - | 228 W/m² | - |
| 1777921040 | 17.78° C | 35% | 1003 hPa | 0 mm | - | 711 W/m² | - |
| 1777920737 | 18.89° C | 36% | 1003.1 hPa | 0 mm | - | 262 W/m² | - |
| 1777920433 | 17.78° C | 38% | 1003 hPa | 0 mm | - | 1072 W/m² | - |
| 1777920129 | 18.33° C | 35% | 1003.1 hPa | 0 mm | - | 404 W/m² | - |
| 1777919825 | 17.78° C | 39% | 1002.8 hPa | 0 mm | - | 517 W/m² | - |
| 1777919522 | 17.22° C | 37% | 1003.6 hPa | 0 mm | - | 229 W/m² | - |
| 1777919220 | 16.67° C | 37% | 1003.1 hPa | 0 mm | - | 511 W/m² | - |
| 1777918917 | 16.11° C | 39% | 1003.4 hPa | 0 mm | - | 829 W/m² | - |
| 1777918615 | 16.67° C | 37% | 1003.4 hPa | 0 mm | - | 239 W/m² | - |
| 1777918312 | 17.22° C | 35% | 1003.2 hPa | 0 mm | - | 299 W/m² | - |
| 1777918011 | 17.78° C | 36% | 1003.2 hPa | 0 mm | - | 310 W/m² | - |
| 1777917709 | 16.67° C | 37% | 1003.4 hPa | 0 mm | - | 576 W/m² | - |
| 1777917406 | 17.78° C | 35% | 1003.6 hPa | 0 mm | - | 249 W/m² | - |
| 1777917103 | 18.33° C | 34% | 1003.3 hPa | 0 mm | - | 813 W/m² | - |
| 1777916801 | 17.78° C | 33% | 1003.2 hPa | 0 mm | - | 1051 W/m² | - |
| 1777916497 | 17.78° C | 35% | 1003.6 hPa | 0 mm | - | 884 W/m² | - |
| 1777916195 | 17.78° C | 36% | 1003.6 hPa | 0 mm | - | 965 W/m² | - |
| 1777915892 | 17.22° C | 37% | 1003.2 hPa | 0 mm | - | 669 W/m² | - |
| 1777915589 | 17.22° C | 35% | 1003.4 hPa | 0 mm | - | 344 W/m² | - |
| 1777915285 | 16.67° C | 36% | 1003.3 hPa | 0 mm | - | 884 W/m² | - |
| 1777914982 | 17.22° C | 37% | 1003.4 hPa | 0 mm | - | 969 W/m² | - |
| 1777914679 | 16.67° C | 36% | 1003.4 hPa | 0 mm | - | 291 W/m² | - |
| 1777914375 | 17.78° C | 35% | 1003.4 hPa | 0 mm | - | 275 W/m² | - |
* Rain latest hour (hover to see other rain measurements)
** Current wind speed in m/s (hover to see current wind gust speed)